Aérodrome :
LOGIN :

S'inscrire | Disclaimer

   EN    FR    IT 

 










Légende :    VFR   VFR Marginal   IFR   IFR Intensif   IFR Très Intensif
Visi : 
Plafond : 
>= 8 km
>= 3000ft
5 à 8 km
1000 à 3000 ft
1500m à 5 km
500 à 1000 ft
800 à 1500m
200 à 500 ft
< 800m
< 200 ft
Symboles :   Orages  Brouillard  Fortes neiges  Fortes précipitations  Vent > 20 kt
SIGMETs :   Divers  Orages  Givrage  Turbulence  Onde Orograph.  Cendres Volcan.







- Altitude de l'aérodrome : 37 ft
- Code IATA : OLB


LIEO - Olbia Costa Smeralda

DERNIER METAR :
  • 190220Z 22003KT 190V250 CAVOK 17/15 Q1014

METARs EXPIRÉS :
  • 190150Z 22002KT CAVOK 16/15 Q1014
  • 190120Z 15002KT CAVOK 17/15 Q1014
  • 190050Z VRB01KT CAVOK 17/15 Q1014
  • 190020Z VRB01KT CAVOK 17/15 Q1014
  • 182350Z VRB02KT CAVOK 18/16 Q1014

TAF TAF LIEO
Valide du 19 à 00h jusqu'au 20 à 00h UTC


182300Z 1900/1924 VRB05KT CAVOK
BECMG 1908/1910 06012KT
BECMG 1916/1918 VRB05KT
Pas de NOTAMs connus pour ce terrain.



MET'MAP, la Météo Aéronautique d'un coup d'oeil ! - Copyright ORBIFLY Décembre 2007 - Disclaimer

ORBIFLY MET'MAP TEAM :

Programmation & Développement : Alexandra Zaïnal
Conception & Développement : Baudouin d'Aumeries
Co-Programmation & Développement : Marc-Olivier Méhu
Soutien technique & logistique : Manuel Goepfert

Contact : metmap@orbifly.com




SOURCES & CREDITS :

   NOAA